Time,TemperatureF,DewpointF,PressureIn,WindDirection,WindDirectionDegrees,WindSpeedMPH,WindSpeedGustMPH,Humidity,HourlyPrecipIn,Conditions,Clouds,dailyrainin,SoftwareType,DateUTC
2013-08-27 00:13:00,78.0,69.0,30.05,South,180,16.0,18.0,74,-99.99,,,-99.99,,2013-08-27 05:13:00,
2013-08-27 00:43:00,78.0,69.0,30.05,South,190,16.0,20.0,73,-99.99,,,-99.99,,2013-08-27 05:43:00,
2013-08-27 00:52:00,79.0,69.0,30.05,South,190,17.0,22.0,71,-99.99,,,-99.99,,2013-08-27 05:52:00,
2013-08-27 02:12:00,78.0,69.0,30.03,SSW,200,16.0,20.0,74,-99.99,,,-99.99,,2013-08-27 07:12:00,
2013-08-27 02:21:00,77.0,69.0,30.03,SSW,200,17.0,20.0,75,-99.99,,,-99.99,,2013-08-27 07:21:00,
2013-08-27 02:42:00,77.0,69.0,30.03,South,190,17.0,21.0,76,-99.99,,,-99.99,,2013-08-27 07:42:00,
2013-08-27 02:52:00,77.0,69.0,30.02,SSW,200,18.0,21.0,76,-99.99,,,-99.99,,2013-08-27 07:52:00,
2013-08-27 03:42:00,77.0,69.0,30.01,SSW,200,17.0,21.0,76,-99.99,,,-99.99,,2013-08-27 08:42:00,
2013-08-27 03:52:00,77.0,69.0,30.01,SSW,200,17.0,20.0,76,-99.99,,,-99.99,,2013-08-27 08:52:00,
2013-08-27 04:11:00,77.0,69.0,30.01,SSW,200,16.0,21.0,76,-99.99,,,-99.99,,2013-08-27 09:11:00,
2013-08-27 04:21:00,77.0,69.0,30.01,SSW,200,16.0,18.0,76,-99.99,,,-99.99,,2013-08-27 09:21:00,
2013-08-27 04:43:00,77.0,69.0,30.01,SSW,200,15.0,17.0,76,-99.99,,,-99.99,,2013-08-27 09:43:00,
2013-08-27 04:54:00,77.0,69.0,30.00,SSW,200,15.0,17.0,75,-99.99,,,-99.99,,2013-08-27 09:54:00,
2013-08-27 05:14:00,77.0,68.0,30.00,SSW,200,15.0,17.0,74,-99.99,,,-99.99,,2013-08-27 10:14:00,
2013-08-27 05:43:00,77.0,68.0,30.00,SSW,200,14.0,16.0,74,-99.99,,,-99.99,,2013-08-27 10:43:00,
2013-08-27 05:53:00,77.0,68.0,29.99,SSW,200,14.0,15.0,74,-99.99,,,-99.99,,2013-08-27 10:53:00,
2013-08-27 06:22:00,77.0,68.0,30.00,SSW,200,11.0,14.0,75,-99.99,,,-99.99,,2013-08-27 11:22:00,
2013-08-27 06:42:00,77.0,69.0,30.01,SSW,200,11.0,13.0,75,-99.99,,,-99.99,,2013-08-27 11:42:00,
2013-08-27 06:52:00,77.0,69.0,30.01,SSW,200,10.0,11.0,74,-99.99,,,-99.99,,2013-08-27 11:52:00,
2013-08-27 07:11:00,77.0,69.0,30.01,SSW,200,10.0,14.0,75,-99.99,,,-99.99,,2013-08-27 12:11:00,
2013-08-27 07:42:00,77.0,69.0,30.02,South,190,10.0,13.0,76,-99.99,,,-99.99,,2013-08-27 12:42:00,
2013-08-27 07:52:00,77.0,69.0,30.02,South,190,9.0,11.0,76,-99.99,,,-99.99,,2013-08-27 12:52:00,
2013-08-27 08:11:00,77.0,69.0,30.02,South,190,10.0,13.0,77,-99.99,,,-99.99,,2013-08-27 13:11:00,
2013-08-27 08:22:00,77.0,69.0,30.02,South,190,11.0,14.0,77,-99.99,,,-99.99,,2013-08-27 13:22:00,
2013-08-27 08:41:00,77.0,69.0,30.02,South,190,10.0,13.0,78,-99.99,,,-99.99,,2013-08-27 13:41:00,
2013-08-27 08:52:00,77.0,69.0,30.02,South,190,10.0,13.0,78,-99.99,,,-99.99,,2013-08-27 13:52:00,
2013-08-27 09:11:00,77.0,70.0,30.02,SSW,200,11.0,14.0,77,-99.99,,,-99.99,,2013-08-27 14:11:00,
2013-08-27 09:42:00,78.0,69.0,30.01,SSW,210,14.0,16.0,75,-99.99,,,-99.99,,2013-08-27 14:42:00,
2013-08-27 09:53:00,78.0,69.0,30.02,SW,230,9.0,13.0,76,-99.99,,,-99.99,,2013-08-27 14:53:00,
2013-08-27 10:11:00,78.0,69.0,30.02,SW,230,7.0,9.0,75,-99.99,,,-99.99,,2013-08-27 15:11:00,
2013-08-27 10:22:00,78.0,69.0,30.01,SW,220,15.0,16.0,73,-99.99,,,-99.99,,2013-08-27 15:22:00,
2013-08-27 10:45:00,78.0,69.0,30.02,SW,230,11.0,11.0,74,-99.99,,,-99.99,,2013-08-27 15:45:00,
2013-08-27 10:58:00,78.0,69.0,30.02,SW,230,5.0,7.0,75,-99.99,,,-99.99,,2013-08-27 15:58:00,
2013-08-27 11:17:00,78.0,69.0,30.02,SSW,210,9.0,10.0,75,-99.99,,,-99.99,,2013-08-27 16:17:00,
2013-08-27 11:46:00,78.0,70.0,30.01,SSW,210,7.0,8.0,74,-99.99,,,-99.99,,2013-08-27 16:46:00,
2013-08-27 11:55:00,80.0,69.0,30.01,SW,220,8.0,8.0,70,-99.99,,,-99.99,,2013-08-27 16:55:00,
2013-08-27 12:13:00,80.0,69.0,30.01,SW,220,7.0,8.0,70,-99.99,,,-99.99,,2013-08-27 17:13:00,
2013-08-27 12:43:00,81.0,69.0,29.99,SSW,210,7.0,9.0,66,-99.99,,,-99.99,,2013-08-27 17:43:00,
2013-08-27 12:52:00,82.0,69.0,29.98,SW,230,8.0,9.0,64,-99.99,,,-99.99,,2013-08-27 17:52:00,
2013-08-27 13:12:00,83.0,70.0,29.98,SSW,210,6.0,8.0,64,-99.99,,,-99.99,,2013-08-27 18:12:00,
2013-08-27 13:42:00,84.0,70.0,29.97,SW,230,9.0,10.0,63,-99.99,,,-99.99,,2013-08-27 18:42:00,
2013-08-27 13:52:00,84.0,71.0,29.96,SW,230,7.0,8.0,63,-99.99,,,-99.99,,2013-08-27 18:52:00,
2013-08-27 14:11:00,85.0,70.0,29.96,SW,230,7.0,8.0,60,-99.99,,,-99.99,,2013-08-27 19:11:00,
2013-08-27 14:22:00,85.0,70.0,29.95,SW,230,6.0,8.0,60,-99.99,,,-99.99,,2013-08-27 19:22:00,
2013-08-27 14:52:00,85.0,70.0,29.94,SW,230,9.0,11.0,59,-99.99,,,-99.99,,2013-08-27 19:52:00,
2013-08-27 15:11:00,85.0,70.0,29.93,SW,220,9.0,11.0,59,-99.99,,,-99.99,,2013-08-27 20:11:00,